Time,TemperatureF,DewpointF,PressureIn,WindDirection,WindDirectionDegrees,WindSpeedMPH,WindSpeedGustMPH,Humidity,HourlyPrecipIn,Conditions,Clouds,dailyrainin,SolarRadiationWatts/m^2,SoftwareType,DateUTC
2013-08-09 00:01:00,49.0,48.0,-100.00,SW,231,1.0,3.0,98,0.00,,,0.01,0.000000,,2013-08-09 05:01:00,
2013-08-09 00:22:00,49.0,48.0,-100.00,SW,231,1.0,3.0,98,0.00,,,0.01,0.000000,,2013-08-09 05:22:00,
2013-08-09 00:33:00,49.0,48.0,-100.00,SW,231,1.0,3.0,98,0.00,,,0.01,0.000000,,2013-08-09 05:33:00,
2013-08-09 00:43:00,49.0,48.0,-100.00,SW,231,1.0,3.0,98,0.00,,,0.01,0.000000,,2013-08-09 05:43:00,
2013-08-09 00:52:00,49.0,48.0,-100.00,SW,231,1.0,3.0,98,0.00,,,0.01,0.000000,,2013-08-09 05:52:00,
2013-08-09 01:01:00,50.0,50.0,-100.00,NW,311,0.0,2.0,99,0.00,,,0.01,0.000000,,2013-08-09 06:01:00,
2013-08-09 01:22:00,50.0,50.0,-100.00,NW,311,0.0,2.0,99,0.00,,,0.01,0.000000,,2013-08-09 06:22:00,
2013-08-09 01:32:00,50.0,50.0,-100.00,NW,311,0.0,2.0,99,0.00,,,0.01,0.000000,,2013-08-09 06:32:00,
2013-08-09 01:43:00,50.0,50.0,-100.00,NW,311,0.0,2.0,99,0.00,,,0.01,0.000000,,2013-08-09 06:43:00,
2013-08-09 01:52:00,50.0,50.0,-100.00,NW,311,0.0,2.0,99,0.00,,,0.01,0.000000,,2013-08-09 06:52:00,
2013-08-09 02:01:00,50.0,50.0,-100.00,NW,306,0.0,0.0,99,0.00,,,0.01,0.000000,,2013-08-09 07:01:00,
2013-08-09 02:22:00,50.0,50.0,-100.00,NW,306,0.0,0.0,99,0.00,,,0.01,0.000000,,2013-08-09 07:22:00,
2013-08-09 02:43:00,50.0,50.0,-100.00,NW,306,0.0,0.0,99,0.00,,,0.01,0.000000,,2013-08-09 07:43:00,
2013-08-09 02:53:00,50.0,50.0,-100.00,NW,306,0.0,0.0,99,0.00,,,0.01,0.000000,,2013-08-09 07:53:00,
2013-08-09 03:01:00,51.0,51.0,-100.00,West,269,0.0,2.0,99,-99.99,,,0.01,0.000000,,2013-08-09 08:01:00,
2013-08-09 03:22:00,51.0,51.0,-100.00,West,269,0.0,2.0,99,-99.99,,,0.01,0.000000,,2013-08-09 08:22:00,
2013-08-09 03:32:00,51.0,51.0,-100.00,West,269,0.0,2.0,99,-99.99,,,0.01,0.000000,,2013-08-09 08:32:00,
2013-08-09 03:43:00,51.0,51.0,-100.00,West,269,0.0,2.0,99,-99.99,,,0.01,0.000000,,2013-08-09 08:43:00,
2013-08-09 03:53:00,51.0,51.0,-100.00,West,269,0.0,2.0,99,-99.99,,,0.01,0.000000,,2013-08-09 08:53:00,
2013-08-09 04:01:00,51.0,51.0,-100.00,WSW,249,2.0,2.0,99,0.00,,,0.01,0.000000,,2013-08-09 09:01:00,
2013-08-09 04:22:00,51.0,51.0,-100.00,WSW,249,2.0,2.0,99,0.00,,,0.01,0.000000,,2013-08-09 09:22:00,
2013-08-09 04:32:00,51.0,51.0,-100.00,WSW,249,2.0,2.0,99,0.00,,,0.01,0.000000,,2013-08-09 09:32:00,
2013-08-09 04:43:00,51.0,51.0,-100.00,WSW,249,2.0,2.0,99,0.00,,,0.01,0.000000,,2013-08-09 09:43:00,
2013-08-09 04:52:00,51.0,51.0,-100.00,WSW,249,2.0,2.0,99,0.00,,,0.01,0.000000,,2013-08-09 09:52:00,
2013-08-09 05:01:00,51.0,51.0,-100.00,NW,310,1.0,3.0,99,0.00,,,0.01,0.000000,,2013-08-09 10:01:00,
2013-08-09 05:22:00,51.0,51.0,-100.00,NW,310,1.0,3.0,99,0.00,,,0.01,0.000000,,2013-08-09 10:22:00,
2013-08-09 05:32:00,51.0,51.0,-100.00,NW,310,1.0,3.0,99,0.00,,,0.01,0.000000,,2013-08-09 10:32:00,
2013-08-09 05:43:00,51.0,51.0,-100.00,NW,310,1.0,3.0,99,0.00,,,0.01,0.000000,,2013-08-09 10:43:00,
2013-08-09 05:53:00,51.0,51.0,-100.00,NW,310,1.0,3.0,99,0.00,,,0.01,0.000000,,2013-08-09 10:53:00,
2013-08-09 06:43:00,48.0,48.0,-100.00,SW,224,0.0,2.0,99,0.00,,,0.01,1.000000,,2013-08-09 11:43:00,
2013-08-09 06:53:00,48.0,48.0,-100.00,SW,224,0.0,2.0,99,0.00,,,0.01,1.000000,,2013-08-09 11:53:00,
2013-08-09 07:01:00,53.0,52.0,-100.00,WSW,241,1.0,3.0,97,-99.99,,,0.01,74.000000,,2013-08-09 12:01:00,
2013-08-09 07:22:00,53.0,52.0,-100.00,WSW,241,1.0,3.0,97,-99.99,,,0.01,74.000000,,2013-08-09 12:22:00,
2013-08-09 07:32:00,53.0,52.0,-100.00,WSW,241,1.0,3.0,97,-99.99,,,0.01,74.000000,,2013-08-09 12:32:00,
2013-08-09 07:43:00,53.0,52.0,-100.00,WSW,241,1.0,3.0,97,-99.99,,,0.01,74.000000,,2013-08-09 12:43:00,
2013-08-09 07:52:00,53.0,52.0,-100.00,WSW,241,1.0,3.0,97,-99.99,,,0.01,74.000000,,2013-08-09 12:52:00,
2013-08-09 08:01:00,59.0,55.0,-100.00,West,267,4.0,7.0,86,0.00,,,0.01,241.000000,,2013-08-09 13:01:00,
2013-08-09 08:23:00,59.0,55.0,-100.00,West,267,4.0,7.0,86,0.00,,,0.01,241.000000,,2013-08-09 13:23:00,
2013-08-09 08:32:00,59.0,55.0,-100.00,West,267,4.0,7.0,86,0.00,,,0.01,241.000000,,2013-08-09 13:32:00,
2013-08-09 08:43:00,59.0,55.0,-100.00,West,267,4.0,7.0,86,0.00,,,0.01,241.000000,,2013-08-09 13:43:00,
2013-08-09 08:52:00,59.0,55.0,-100.00,West,267,4.0,7.0,86,0.00,,,0.01,241.000000,,2013-08-09 13:52:00,
2013-08-09 09:01:00,61.0,50.0,-100.00,NW,305,9.0,18.0,66,0.00,,,0.01,443.000000,,2013-08-09 14:01:00,
2013-08-09 09:22:00,61.0,50.0,-100.00,NW,305,9.0,18.0,66,0.00,,,0.01,443.000000,,2013-08-09 14:22:00,
2013-08-09 09:33:00,61.0,50.0,-100.00,NW,305,9.0,18.0,66,0.00,,,0.01,443.000000,,2013-08-09 14:33:00,
2013-08-09 09:43:00,61.0,50.0,-100.00,NW,305,9.0,18.0,66,0.00,,,0.01,443.000000,,2013-08-09 14:43:00,
2013-08-09 09:53:00,61.0,50.0,-100.00,NW,305,9.0,18.0,66,0.00,,,0.01,443.000000,,2013-08-09 14:53:00,
2013-08-09 10:01:00,63.0,47.0,-100.00,NW,306,9.0,18.0,56,0.00,,,0.01,622.000000,,2013-08-09 15:01:00,
2013-08-09 10:22:00,63.0,47.0,-100.00,NW,306,9.0,18.0,56,0.00,,,0.01,622.000000,,2013-08-09 15:22:00,
2013-08-09 10:33:00,63.0,47.0,-100.00,NW,306,9.0,18.0,56,0.00,,,0.01,622.000000,,2013-08-09 15:33:00,
2013-08-09 10:44:00,63.0,47.0,-100.00,NW,306,9.0,18.0,56,0.00,,,0.01,622.000000,,2013-08-09 15:44:00,
2013-08-09 10:53:00,63.0,47.0,-100.00,NW,306,9.0,18.0,56,0.00,,,0.01,622.000000,,2013-08-09 15:53:00,
2013-08-09 11:01:00,64.0,47.0,-100.00,WNW,300,9.0,20.0,55,0.00,,,0.01,657.000000,,2013-08-09 16:01:00,
2013-08-09 11:22:00,64.0,47.0,-100.00,WNW,300,9.0,20.0,55,0.00,,,0.01,657.000000,,2013-08-09 16:22:00,
2013-08-09 11:32:00,64.0,47.0,-100.00,WNW,300,9.0,20.0,55,0.00,,,0.01,657.000000,,2013-08-09 16:32:00,
2013-08-09 11:43:00,64.0,47.0,-100.00,WNW,300,9.0,20.0,55,0.00,,,0.01,657.000000,,2013-08-09 16:43:00,
2013-08-09 11:53:00,64.0,47.0,-100.00,WNW,300,9.0,20.0,55,0.00,,,0.01,657.000000,,2013-08-09 16:53:00,
2013-08-09 12:01:00,64.0,47.0,-100.00,NW,312,10.0,20.0,54,0.00,,,0.01,764.000000,,2013-08-09 17:01:00,
2013-08-09 12:22:00,64.0,47.0,-100.00,NW,312,10.0,20.0,54,0.00,,,0.01,764.000000,,2013-08-09 17:22:00,
2013-08-09 12:33:00,64.0,47.0,-100.00,NW,312,10.0,20.0,54,0.00,,,0.01,764.000000,,2013-08-09 17:33:00,
2013-08-09 12:43:00,64.0,47.0,-100.00,NW,312,10.0,20.0,54,0.00,,,0.01,764.000000,,2013-08-09 17:43:00,
2013-08-09 12:52:00,64.0,47.0,-100.00,NW,312,10.0,20.0,54,0.00,,,0.01,764.000000,,2013-08-09 17:52:00,
2013-08-09 13:01:00,68.0,49.0,-100.00,WNW,288,9.0,20.0,50,0.00,,,0.01,780.000000,,2013-08-09 18:01:00,
2013-08-09 13:22:00,68.0,49.0,-100.00,WNW,288,9.0,20.0,50,0.00,,,0.01,780.000000,,2013-08-09 18:22:00,
2013-08-09 13:32:00,68.0,49.0,-100.00,WNW,288,9.0,20.0,50,0.00,,,0.01,780.000000,,2013-08-09 18:32:00,
2013-08-09 13:43:00,68.0,49.0,-100.00,WNW,288,9.0,20.0,50,0.00,,,0.01,780.000000,,2013-08-09 18:43:00,
2013-08-09 13:53:00,68.0,49.0,-100.00,WNW,288,9.0,20.0,50,0.00,,,0.01,780.000000,,2013-08-09 18:53:00,
2013-08-09 14:01:00,65.0,48.0,-100.00,WNW,299,8.0,17.0,54,0.00,,,-99.99,584.000000,,2013-08-09 19:01:00,
2013-08-09 14:22:00,65.0,48.0,-100.00,WNW,299,8.0,17.0,54,0.00,,,-99.99,584.000000,,2013-08-09 19:22:00,
2013-08-09 14:32:00,65.0,48.0,-100.00,WNW,299,8.0,17.0,54,0.00,,,-99.99,584.000000,,2013-08-09 19:32:00,
2013-08-09 14:43:00,65.0,48.0,-100.00,WNW,299,8.0,17.0,54,0.00,,,-99.99,584.000000,,2013-08-09 19:43:00,
2013-08-09 14:52:00,65.0,48.0,-100.00,WNW,299,8.0,17.0,54,0.00,,,-99.99,584.000000,,2013-08-09 19:52:00,
2013-08-09 15:01:00,66.0,48.0,-100.00,NW,311,8.0,18.0,53,0.00,,,0.00,596.000000,,2013-08-09 20:01:00,
2013-08-09 15:22:00,66.0,48.0,-100.00,NW,311,8.0,18.0,53,0.00,,,0.00,596.000000,,2013-08-09 20:22:00,
2013-08-09 15:32:00,66.0,48.0,-100.00,NW,311,8.0,18.0,53,0.00,,,0.00,596.000000,,2013-08-09 20:32:00,
2013-08-09 15:43:00,66.0,48.0,-100.00,NW,311,8.0,18.0,53,0.00,,,0.00,596.000000,,2013-08-09 20:43:00,
2013-08-09 15:52:00,66.0,48.0,-100.00,NW,311,8.0,18.0,53,0.00,,,0.00,596.000000,,2013-08-09 20:52:00,
2013-08-09 16:01:00,65.0,47.0,-100.00,WNW,295,8.0,17.0,53,0.00,,,0.00,600.000000,,2013-08-09 21:01:00,
2013-08-09 16:22:00,65.0,47.0,-100.00,WNW,295,8.0,17.0,53,0.00,,,0.00,600.000000,,2013-08-09 21:22:00,
2013-08-09 16:33:00,65.0,47.0,-100.00,WNW,295,8.0,17.0,53,0.00,,,0.00,600.000000,,2013-08-09 21:33:00,
2013-08-09 16:43:00,65.0,47.0,-100.00,WNW,295,8.0,17.0,53,0.00,,,0.00,600.000000,,2013-08-09 21:43:00,
2013-08-09 16:52:00,65.0,47.0,-100.00,WNW,295,8.0,17.0,53,0.00,,,0.00,600.000000,,2013-08-09 21:52:00,
2013-08-09 17:01:00,66.0,49.0,-100.00,NW,308,8.0,14.0,54,0.00,,,0.00,380.000000,,2013-08-09 22:01:00,
2013-08-09 17:22:00,66.0,49.0,-100.00,NW,308,8.0,14.0,54,0.00,,,0.00,380.000000,,2013-08-09 22:22:00,
2013-08-09 17:32:00,66.0,49.0,-100.00,NW,308,8.0,14.0,54,0.00,,,0.00,380.000000,,2013-08-09 22:32:00,
2013-08-09 17:43:00,66.0,49.0,-100.00,NW,308,8.0,14.0,54,0.00,,,0.00,380.000000,,2013-08-09 22:43:00,
2013-08-09 17:52:00,66.0,49.0,-100.00,NW,308,8.0,14.0,54,0.00,,,0.00,380.000000,,2013-08-09 22:52:00,
2013-08-09 18:01:00,67.0,50.0,-100.00,NW,304,6.0,21.0,55,0.00,,,0.00,525.000000,,2013-08-09 23:01:00,
2013-08-09 18:22:00,67.0,50.0,-100.00,NW,304,6.0,21.0,55,0.00,,,0.00,525.000000,,2013-08-09 23:22:00,
2013-08-09 18:32:00,67.0,50.0,-100.00,NW,304,6.0,21.0,55,0.00,,,0.00,525.000000,,2013-08-09 23:32:00,
2013-08-09 18:43:00,67.0,50.0,-100.00,NW,304,6.0,21.0,55,0.00,,,0.00,525.000000,,2013-08-09 23:43:00,
2013-08-09 18:52:00,67.0,50.0,-100.00,NW,304,6.0,21.0,55,0.00,,,0.00,525.000000,,2013-08-09 23:52:00,
2013-08-09 19:01:00,63.0,50.0,-100.00,NW,313,4.0,11.0,63,0.00,,,0.00,208.000000,,2013-08-10 00:01:00,
2013-08-09 19:22:00,63.0,50.0,-100.00,NW,313,4.0,11.0,63,0.00,,,0.00,208.000000,,2013-08-10 00:22:00,
2013-08-09 19:33:00,63.0,50.0,-100.00,NW,313,4.0,11.0,63,0.00,,,0.00,208.000000,,2013-08-10 00:33:00,
2013-08-09 19:43:00,63.0,50.0,-100.00,NW,313,4.0,11.0,63,0.00,,,0.00,208.000000,,2013-08-10 00:43:00,
2013-08-09 19:53:00,63.0,50.0,-100.00,NW,313,4.0,11.0,63,0.00,,,0.00,208.000000,,2013-08-10 00:53:00,
2013-08-09 20:01:00,61.0,52.0,-100.00,WNW,295,4.0,9.0,71,0.00,,,0.00,105.000000,,2013-08-10 01:01:00,
2013-08-09 20:22:00,61.0,52.0,-100.00,WNW,295,4.0,9.0,71,0.00,,,0.00,105.000000,,2013-08-10 01:22:00,
2013-08-09 20:32:00,61.0,52.0,-100.00,WNW,295,4.0,9.0,71,0.00,,,0.00,105.000000,,2013-08-10 01:32:00,
2013-08-09 20:43:00,61.0,52.0,-100.00,WNW,295,4.0,9.0,71,0.00,,,0.00,105.000000,,2013-08-10 01:43:00,
2013-08-09 20:52:00,61.0,52.0,-100.00,WNW,295,4.0,9.0,71,0.00,,,0.00,105.000000,,2013-08-10 01:52:00,
2013-08-09 21:01:00,54.0,52.0,-100.00,WNW,287,0.0,6.0,92,0.00,,,0.00,3.000000,,2013-08-10 02:01:00,
2013-08-09 21:21:00,54.0,52.0,-100.00,WNW,287,0.0,6.0,92,0.00,,,0.00,3.000000,,2013-08-10 02:21:00,
2013-08-09 21:32:00,54.0,52.0,-100.00,WNW,287,0.0,6.0,92,0.00,,,0.00,3.000000,,2013-08-10 02:32:00,
2013-08-09 21:42:00,54.0,52.0,-100.00,WNW,287,0.0,6.0,92,0.00,,,0.00,3.000000,,2013-08-10 02:42:00,
2013-08-09 21:52:00,54.0,52.0,-100.00,WNW,287,0.0,6.0,92,0.00,,,0.00,3.000000,,2013-08-10 02:52:00,
2013-08-09 22:01:00,50.0,49.0,-100.00,West,268,0.0,2.0,96,0.00,,,0.00,0.000000,,2013-08-10 03:01:00,
2013-08-09 22:22:00,50.0,49.0,-100.00,West,268,0.0,2.0,96,0.00,,,0.00,0.000000,,2013-08-10 03:22:00,
2013-08-09 22:32:00,50.0,49.0,-100.00,West,268,0.0,2.0,96,0.00,,,0.00,0.000000,,2013-08-10 03:32:00,
2013-08-09 22:42:00,50.0,49.0,-100.00,West,268,0.0,2.0,96,0.00,,,0.00,0.000000,,2013-08-10 03:42:00,
2013-08-09 22:52:00,50.0,49.0,-100.00,West,268,0.0,2.0,96,0.00,,,0.00,0.000000,,2013-08-10 03:52:00,
2013-08-09 23:01:00,48.0,47.0,-100.00,SW,228,2.0,3.0,98,0.00,,,0.00,0.000000,,2013-08-10 04:01:00,
2013-08-09 23:22:00,48.0,47.0,-100.00,SW,228,2.0,3.0,98,0.00,,,0.00,0.000000,,2013-08-10 04:22:00,
2013-08-09 23:32:00,48.0,47.0,-100.00,SW,228,2.0,3.0,98,0.00,,,0.00,0.000000,,2013-08-10 04:32:00,
2013-08-09 23:43:00,48.0,47.0,-100.00,SW,228,2.0,3.0,98,0.00,,,0.00,0.000000,,2013-08-10 04:43:00,
2013-08-09 23:53:00,48.0,47.0,-100.00,SW,228,2.0,3.0,98,0.00,,,0.00,0.000000,,2013-08-10 04:53:00,